Flag for Japan Weather past 2 weeks in Niigata, Japan

Now
49 °F

Cool.


Feels Like: 45 °F
Forecast: 47 / 56 °F
Wind: 10 mph from Southwest

Location: Niigata

Current Time: Mar 30, 2015 at 3:24:52 AM

Latest Report: Mar 30, 2015 at 2:00 AM


Visibility: N/A

Pressure: 30.01 "Hg

Humidity: 87%

Dew point: 46 °F

Location of NiigataLocation

Historic Weather in Niigata — Graph

°F

Niigata temperature yesterday

Maximum temperature yesterday: 57 °F (at 10:00 AM)
Minimum temperature yesterday: 44 °F (at 3:00 AM)
Average temperature yesterday: 51 °F

Past Weeks' High & Low Weather Summary

 TemperatureHumidityPressure
High63 °F (Mar 28, 1:00 PM)96% (Mar 19, 7:00 AM)30.53 "Hg (Mar 19, 7:00 AM)
Low34 °F (Mar 15, 6:00 AM)22% (Mar 28, 1:00 PM)29.80 "Hg (Mar 19, 11:00 AM)
Average47 °F66%30.12 "Hg
* Reported Mar 15 2:00 AM — Mar 30 2:00 AM, Niigata, Weather by CustomWeather, © 2015

Note: Actual official high and low records may vary slightly from our data, if they occured in-between our weather recording intervals... More about our weather records

Advertising

Niigata weather history for previous 24 hours

 ConditionsComfort  
Time TempWeatherWind HumidityBarometerVisibility
2:00 AM
Mon, Mar 30
49 °FCool.10 mph87%30.01 "HgN/A
1:00 AM50 °FCool.9 mph89%30.01 "HgN/A
12:00 AM49 °FCool.6 mph91%30.00 "HgN/A
11:00 PM
Sun, Mar 29
50 °FCool.7 mph91%30.00 "HgN/A
10:00 PM51 °FCool.6 mph92%29.99 "HgN/A
9:00 PM51 °FOvercast.2 mph91%29.98 "Hg9 mi
8:00 PM51 °FCool.5 mph94%29.98 "HgN/A
7:00 PM52 °FCool.8 mph93%29.97 "HgN/A
6:00 PM52 °FSprinkles. Overcast.3 mph92%29.96 "Hg6 mi
5:00 PM52 °FCool.7 mph90%29.96 "HgN/A
4:00 PM53 °FCool.8 mph87%29.96 "HgN/A
3:00 PM55 °FSprinkles. Overcast.6 mph77%29.94 "Hg6 mi
2:00 PM55 °FCool.7 mph71%29.96 "HgN/A
1:00 PM57 °FRefreshingly cool.5 mph59%29.97 "HgN/A
11:00 AM55 °FRefreshingly cool.7 mph47%29.98 "HgN/A
10:00 AM57 °FRefreshingly cool.10 mph43%29.98 "HgN/A
9:00 AM52 °FOvercast.5 mph55%29.99 "Hg16 mi
8:00 AM48 °FCool.5 mph58%30.01 "HgN/A
7:00 AM48 °FCool.5 mph56%30.01 "HgN/A
5:00 AM46 °FCool.6 mph57%30.01 "HgN/A
4:00 AM45 °FCool.5 mph59%30.01 "HgN/A
3:00 AM44 °FOvercast.3 mph61%30.01 "Hg16 mi
Weather by CustomWeather, © 2015

See weather overviewHow to use our weather pages